Regional Weather Roundup
Issued by NWS New Orleans/Baton Rouge, LA

Home | Current Version | Previous Version | Text Only | Print | Product List | Glossary On
Versions: 1 2 3 4 5 6 7 8 9 10 11 12 13 14 15 16 17 18 19 20 21 22 23 24 25 26 27 28 29 30 31 32 33 34 35 36 37 38 39 40 41 42 43 44 45 46 47 48 49 50
849
ASUS44 KLIX 271511
RWRLIX
NEW ORLEANS REGIONAL WEATHER ROUNDUP
NATIONAL WEATHER SERVICE NEW ORLEANS LA
1000 AM CDT FRI MAR 27 2015

NOTE: "FAIR" INDICATES FEW OR NO CLOUDS BELOW 12,000 FEET WITH NO
      SIGNIFICANT WEATHER AND/OR OBSTRUCTIONS TO VISIBILITY.
      SKY/WX - SKY CONDITION AND SIGNIFICANT WEATHER.
      TMP - AIR TEMPERATURE.     DP    - DEWPOINT TEMPERATURE.
      RH  - RELATIVE HUMIDITY.   PRES  - PRESSURE.
      HI  - HEAT INDEX.          WCI   - WIND CHILL INDEX.

*  THESE STATIONS ARE NOT NWS OR FAA STATIONS AND ARE NOT UNDER
   NWS QUALITY CONTROL.

LAZ038-040-048-061>063-065>067-069-271600-
SOUTHEAST LOUISIANA

CITY           SKY/WX    TMP DP  RH WIND       PRES   REMARKS
N.O. AUDUBON   NOT AVBL
N.O. INTL ARPT MOSUNNY   55  43  63 N16       30.08R
N.O. LAKEFRONT SUNNY     57  45  64 NW18      30.08R
SLIDELL        SUNNY     55  42  61 N10G17    30.06R
BATON ROUGE    SUNNY     55  33  43 N8        30.11R
BOOTHVILLE     MOSUNNY   57  48  72 NW17G25   30.04R
BELLE CHASSE   PTSUNNY   56  44  64 NW9G20    30.06R
BOGALUSA*        N/A     55  39  54 N8        30.08S
GALLIANO*      SUNNY     58  48  68 MISG      30.07R
NEW ROADS*       N/A     54  37  52 NW8       30.12F
GONZALES*        N/A     56  29  35 N9G20     30.10R
HAMMOND*       SUNNY     57  30  35 N16       30.10R
HOUMA*         MOSUNNY   55  46  71 N14       30.08R
PORT FOURCHON* SUNNY     57  46  67 N15       30.10R

$$

MSZ070-080>082-271600-
SOUTHERN MISSISSIPPI

CITY           SKY/WX    TMP DP  RH WIND       PRES   REMARKS
MCCOMB         SUNNY     53  31  42 N10G21    30.08S
GULFPORT       SUNNY     56  42  59 N12G21    30.03R
BILOXI         SUNNY     56  46  68 N10       30.02R
PASCAGOULA     MOSUNNY   55  44  66 N15G23    30.02R
STENNIS ARPT*  SUNNY     54  39  58 N12G17    30.04F

$$

COASTAL OBSERVATIONS
LAKE AND NEARSHORE STATIONS

STATION/POSITION TIME  TEMP    WIND        PRES    WAVE
                       AIR SEA DIR/SP/G            HT/PER
                 (UTC) (F)     (DEG/KT/KT) (MB)    (FT/S)
PASCAGOULA       1400   53     330/ 12/ 16 1015.3
WAVELAND YACHT   1400   52 65  350/ 17/ 20 1016.8
GRAND ISLE       1400   57 68  350/ 14/ 21 1016.8
SOUTHWEST PASS   1400   55 51  340/ 19/ 23 1016.9
NEW CANAL        1400   53     350/ 14/ 20 1018.2
SHELL BEACH      1400   54 68  330/ 22/ 27 1016.9

OFFSHORE STATIONS

STATION/POSITION TIME  TEMP    WIND        PRES    WAVE
                       AIR SEA DIR/SP/G            HT/PER
                 (UTC) (F)     (DEG/KT/KT) (MB)    (FT/S)
64 S DAUPHIN ISL 1450   58 72  330/ 23/ 27 1015.2    6/ 6

$$




USA.gov is the U.S. government's official web portal to all federal, state and local government web resources and services.